FW7746 Weather Reports


time (UTC)temp
F
wind
direction
speed
knots
gust
knots
rain 1hr
in
rain 24hr
in
rain mn
in
humidity
%
barometer
mb
20260507122104 53 185 0.9 5.2 0.00 0.00 0.00 60 1014.0
20260507121103 52 231 0.0 0.9 0.00 0.00 0.00 61 1013.9
20260507120603 52 236 0.0 2.6 0.00 0.00 0.00 61 1014.0
20260507120104 52 193 0.0 0.9 0.00 0.00 0.00 62 1014.0
20260507115604 53 194 0.0 0.0 0.00 0.00 0.00 63 1014.1
20260507115103 53 195 0.0 0.0 0.00 0.00 0.00 63 1014.0
20260507114604 53 195 0.0 2.6 0.00 0.00 0.00 64 1014.0
20260507114104 53 200 0.0 0.9 0.00 0.00 0.00 64 1014.1
20260507113604 53 202 0.0 0.0 0.00 0.00 0.00 64 1014.1
20260507113104 53 202 0.0 0.0 0.00 0.00 0.00 63 1014.2
20260507112604 53 202 0.0 1.7 0.00 0.00 0.00 63 1014.1
20260507112103 53 192 0.0 0.9 0.00 0.00 0.00 63 1014.1
20260507111604 53 227 0.0 0.0 0.00 0.00 0.00 62 1014.2
20260507111103 53 229 0.0 0.0 0.00 0.00 0.00 62 1014.2
20260507110104 53 179 0.0 0.0 0.00 0.00 0.00 62 1014.1
20260507105609 53 180 0.0 0.0 0.00 0.00 0.00 61 1014.1
20260507104604 53 178 0.0 0.0 0.00 0.00 0.00 61 1014.1
20260507104103 54 175 0.0 0.0 0.00 0.00 0.00 61 1014.0
20260507103604 54 174 0.0 0.9 0.00 0.00 0.00 61 1014.0
20260507103103 54 169 0.0 0.0 0.00 0.00 0.00 61 1014.0
20260507102603 54 167 0.0 0.0 0.00 0.00 0.00 61 1014.0
20260507102104 54 169 0.0 0.0 0.00 0.00 0.00 61 1014.1
20260507101603 54 169 0.0 0.9 0.00 0.00 0.00 61 1014.2
20260507101104 54 173 0.0 1.7 0.00 0.00 0.00 61 1014.1
20260507100103 54 161 0.0 0.9 0.00 0.00 0.00 60 1014.2
20260507094104 55 194 0.0 0.9 0.00 0.00 0.00 61 1014.4
20260507093603 55 203 0.0 0.9 0.00 0.00 0.00 61 1014.5
20260507093104 54 164 0.0 1.7 0.00 0.00 0.00 61 1014.5
20260507092604 55 146 0.0 0.0 0.00 0.00 0.00 61 1014.6
20260507092103 54 145 0.0 0.0 0.00 0.00 0.00 61 1014.6
20260507091604 54 138 0.0 0.9 0.00 0.00 0.00 61 1014.7
20260507091103 54 292 0.0 0.0 0.00 0.00 0.00 61 1014.7
20260507090604 54 304 0.0 0.9 0.00 0.00 0.00 62 1014.8
20260507090105 54 322 0.0 0.0 0.00 0.00 0.00 62 1014.8
20260507085604 54 322 0.0 0.0 0.00 0.00 0.00 63 1015.0
20260507084604 53 324 0.0 0.0 0.00 0.00 0.00 65 1015.1
20260507084103 53 325 0.0 0.0 0.00 0.00 0.00 65 1015.0
20260507083604 53 325 0.0 0.0 0.00 0.00 0.00 65 1015.0
20260507083103 53 325 0.0 0.0 0.00 0.00 0.00 66 1015.0
20260507082604 53 325 0.0 0.0 0.00 0.00 0.00 67 1015.0
20260507082103 53 325 0.0 0.0 0.00 0.00 0.00 67 1014.9
20260507081604 52 325 0.0 0.0 0.00 0.00 0.00 67 1015.1
20260507081103 52 325 0.0 0.0 0.00 0.00 0.00 67 1015.1
20260507080603 52 325 0.0 0.0 0.00 0.00 0.00 67 1015.0
20260507080104 53 325 0.0 0.0 0.00 0.00 0.00 66 1015.1
20260507075603 53 325 0.0 0.0 0.00 0.00 0.00 65 1015.1
20260507075104 53 325 0.0 0.0 0.00 0.00 0.00 64 1015.1
20260507074603 53 325 0.0 0.0 0.00 0.00 0.00 64 1015.2
20260507074104 53 325 0.0 0.0 0.00 0.00 0.00 63 1015.2
20260507073603 54 325 0.0 0.0 0.00 0.00 0.00 62 1015.2
20260507073104 54 325 0.0 0.0 0.00 0.00 0.00 62 1015.3
20260507072604 54 325 0.0 0.0 0.00 0.00 0.00 61 1015.2
20260507072103 54 325 0.0 0.0 0.00 0.00 0.00 61 1015.2
20260507071604 55 325 0.0 0.0 0.00 0.00 0.00 61 1015.3
20260507071103 55 325 0.0 0.0 0.00 0.00 0.00 60 1015.2
20260507065604 56 325 0.0 0.0 0.00 0.00 0.00 59 1015.3
20260507065104 56 325 0.0 0.0 0.00 0.00 0.00 58 1015.3
20260507064604 56 325 0.0 0.0 0.00 0.00 0.00 58 1015.3
20260507064104 56 325 0.0 0.0 0.00 0.00 0.00 58 1015.2
20260507063604 56 325 0.0 0.0 0.00 0.00 0.00 59 1015.3
20260507063104 56 325 0.0 0.0 0.00 0.00 0.00 59 1015.3
20260507062603 57 325 0.0 0.0 0.00 0.00 0.00 59 1015.3
20260507062104 57 325 0.0 0.0 0.00 0.00 0.00 59 1015.3
20260507061603 57 325 0.0 0.0 0.00 0.00 0.00 59 1015.3
20260507061104 57 325 0.0 0.0 0.00 0.00 0.00 59 1015.4
20260507060603 58 325 0.0 0.0 0.00 0.00 0.00 58 1015.4
20260507060104 58 325 0.0 0.0 0.00 0.00 0.00 57 1015.4
20260507055604 58 325 0.0 0.0 0.00 0.00 0.00 57 1015.5
20260507055104 58 325 0.0 0.0 0.00 0.00 0.00 56 1015.4
20260507054604 59 325 0.0 0.0 0.00 0.00 0.00 56 1015.5
20260507053603 59 325 0.0 0.0 0.00 0.00 0.00 56 1015.6
20260507053104 59 325 0.0 0.0 0.00 0.00 0.00 55 1015.6
20260507052604 60 325 0.0 0.0 0.00 0.00 0.00 54 1015.6
20260507052104 60 325 0.0 0.0 0.00 0.00 0.00 53 1015.7
20260507051603 60 325 0.0 0.0 0.00 0.00 0.00 53 1015.7
20260507051103 61 325 0.0 0.0 0.00 0.00 0.00 52 1015.7
20260507050104 61 325 0.0 0.0 0.00 0.00 0.00 51 1015.6
20260507045604 61 325 0.0 0.0 0.00 0.00 0.00 50 1015.5
20260507045103 61 325 0.0 0.0 0.00 0.00 0.00 51 1015.5
20260507044604 62 325 0.0 0.0 0.00 0.00 0.00 51 1015.5
20260507044104 62 325 0.0 0.0 0.00 0.00 0.00 50 1015.5
20260507043604 62 325 0.0 0.0 0.00 0.00 0.00 50 1015.4
20260507043104 62 325 0.0 0.0 0.00 0.00 0.00 51 1015.4
20260507042103 63 325 0.0 0.0 0.00 0.00 0.00 50 1015.3
20260507041603 63 325 0.0 0.0 0.00 0.00 0.00 49 1015.3
20260507041104 63 325 0.0 0.0 0.00 0.00 0.00 49 1015.2
20260507040604 63 325 0.0 0.0 0.00 0.00 0.00 49 1015.1
20260507040104 63 323 0.0 0.0 0.00 0.00 0.00 49 1015.1
20260507035604 63 323 0.0 1.7 0.00 0.00 0.00 49 1015.0
20260507034604 64 324 0.0 0.0 0.00 0.00 0.00 49 1015.0
20260507034103 64 325 0.9 5.2 0.00 0.00 0.00 48 1014.9
20260507032604 65 328 0.9 2.6 0.00 0.00 0.00 46 1014.7
20260507031604 65 329 0.0 1.7 0.00 0.00 0.00 45 1014.7
20260507030604 66 323 0.0 2.6 0.00 0.00 0.00 44 1014.5
20260507025604 66 317 0.0 0.0 0.00 0.00 0.00 43 1014.4
20260507025104 67 314 0.0 0.0 0.00 0.00 0.00 42 1014.3
20260507024604 67 314 0.9 2.6 0.00 0.00 0.00 42 1014.3
20260507024103 67 314 0.0 0.9 0.00 0.00 0.00 43 1014.3
20260507023604 67 327 0.0 2.6 0.00 0.00 0.00 42 1014.3
20260507022604 68 323 0.9 2.6 0.00 0.00 0.00 40 1014.2
20260507022103 68 277 0.0 1.7 0.00 0.00 0.00 40 1014.1
20260507021604 69 238 0.0 0.9 0.00 0.00 0.00 39 1014.0
20260507021104 69 229 0.0 1.7 0.00 0.00 0.00 39 1013.9
20260507020604 69 300 0.0 1.7 0.00 0.00 0.00 38 1014.0
20260507020104 70 294 0.0 1.7 0.00 0.00 0.00 37 1013.9
20260507015604 71 304 0.0 2.6 0.00 0.00 0.00 37 1014.0
20260507015104 71 224 0.0 2.6 0.00 0.00 0.00 38 1013.9
20260507014604 71 294 0.0 5.2 0.00 0.00 0.00 36 1014.0
20260507014103 71 323 0.9 2.6 0.00 0.00 0.00 36 1013.8
20260507013604 72 317 0.9 2.6 0.00 0.00 0.00 36 1013.8
20260507013104 72 324 2.6 10.4 0.00 0.00 0.00 36 1013.9
20260507012604 72 333 1.7 7.8 0.00 0.00 0.00 37 1013.8
20260507012103 72 319 1.7 7.8 0.00 0.00 0.00 38 1013.8
20260507011603 72 327 1.7 10.4 0.00 0.00 0.00 37 1013.8
20260507011104 71 258 0.9 2.6 0.00 0.00 0.00 37 1013.9
20260507010104 71 293 0.9 5.2 0.00 0.00 0.00 35 1013.9
20260507005604 71 297 0.0 2.6 0.00 0.00 0.00 35 1013.8
20260507005103 72 318 1.7 10.4 0.00 0.00 0.00 35 1013.8
20260507004604 72 321 2.6 8.7 0.00 0.00 0.00 35 1013.6
20260507004104 72 329 0.9 8.7 0.00 0.00 0.00 35 1013.6
20260507003604 72 322 1.7 7.0 0.00 0.00 0.00 36 1013.5
20260507002604 73 327 6.1 14.8 0.00 0.00 0.00 33 1013.4
20260507002103 74 327 7.0 14.8 0.00 0.00 0.00 31 1013.4
20260507001603 74 292 3.5 13.0 0.00 0.00 0.00 31 1013.3
20260507001104 75 328 2.6 12.2 0.00 0.00 0.00 31 1013.3
20260507000604 74 318 4.3 14.8 0.00 0.00 0.00 31 1013.2
20260507000104 75 277 2.6 12.2 0.00 0.00 0.00 30 1013.0
20260506235604 75 320 4.3 13.9 0.00 0.00 0.00 30 1013.1
20260506234104 76 320 4.3 12.2 0.00 0.00 0.00 28 1013.1
20260506233604 76 323 5.2 15.6 0.00 0.00 0.00 30 1013.0
20260506233104 77 330 3.5 11.3 0.00 0.00 0.00 29 1013.0
20260506232104 76 318 5.2 13.0 0.00 0.00 0.00 33 1013.0
20260506231604 77 319 5.2 13.9 0.00 0.00 0.00 31 1012.9
20260506231103 77 319 4.3 11.3 0.00 0.00 0.00 31 1013.1
20260506230603 77 329 3.5 10.4 0.00 0.00 0.00 32 1013.0
20260506230104 77 315 4.3 15.6 0.00 0.00 0.00 30 1013.0
20260506225604 78 336 1.7 8.7 0.00 0.00 0.00 29 1013.0
20260506225104 78 330 4.3 11.3 0.00 0.00 0.00 28 1013.0
20260506224604 78 332 2.6 7.0 0.00 0.00 0.00 26 1013.2
20260506224104 78 332 2.6 7.8 0.00 0.00 0.00 25 1013.3
20260506223104 78 329 3.5 12.2 0.00 0.00 0.00 27 1013.5
20260506222604 78 326 5.2 12.2 0.00 0.00 0.00 26 1013.3
20260506222103 78 316 5.2 12.2 0.00 0.00 0.00 26 1013.4
20260506221603 78 326 4.3 11.3 0.00 0.00 0.00 25 1013.4
20260506220603 78 319 4.3 13.0 0.00 0.00 0.00 26 1013.4
20260506220104 79 289 2.6 8.7 0.00 0.00 0.00 26 1013.5
20260506215604 79 313 2.6 7.8 0.00 0.00 0.00 26 1013.6
20260506215104 79 325 4.3 13.0 0.00 0.00 0.00 25 1013.6
20260506214603 79 324 2.6 8.7 0.00 0.00 0.00 25 1013.7
20260506214104 79 310 1.7 7.0 0.00 0.00 0.00 24 1013.7
20260506213603 79 319 3.5 7.8 0.00 0.00 0.00 24 1013.8
20260506213104 80 325 0.9 8.7 0.00 0.00 0.00 25 1013.8
20260506212604 81 328 1.7 5.2 0.00 0.00 0.00 25 1013.8
20260506212104 81 321 0.0 5.2 0.00 0.00 0.00 26 1013.8
20260506211604 81 255 0.0 2.6 0.00 0.00 0.00 26 1013.7
20260506211103 80 329 0.9 2.6 0.00 0.00 0.00 27 1013.7
20260506210603 80 321 0.0 4.3 0.00 0.00 0.00 26 1013.8
20260506210104 80 307 0.9 4.3 0.00 0.00 0.00 26 1013.9
20260506205604 80 17 0.0 0.0 0.00 0.00 0.00 28 1013.9
20260506205104 80 17 0.0 1.7 0.00 0.00 0.00 26 1013.9
20260506204604 80 340 0.0 2.6 0.00 0.00 0.00 27 1014.0
20260506204104 80 309 0.9 6.1 0.00 0.00 0.00 26 1014.0
20260506203603 79 321 0.0 1.7 0.00 0.00 0.00 27 1014.0
20260506203104 79 55 0.0 2.6 0.00 0.00 0.00 28 1014.0
20260506202603 78 342 0.0 2.6 0.00 0.00 0.00 28 1014.1
20260506202104 77 311 0.9 7.8 0.00 0.00 0.00 28 1014.2
20260506201604 77 330 1.7 7.0 0.00 0.00 0.00 27 1014.2
20260506201104 77 328 0.9 2.6 0.00 0.00 0.00 30 1014.4
20260506200603 77 332 0.9 4.3 0.00 0.00 0.00 28 1014.4
20260506200104 78 332 1.7 7.8 0.00 0.00 0.00 28 1014.4
20260506195604 78 271 0.0 2.6 0.00 0.00 0.00 28 1014.3
20260506194604 77 316 0.0 2.6 0.00 0.00 0.00 29 1014.5
20260506194103 76 316 2.6 7.0 0.00 0.00 0.00 29 1014.5
20260506193104 76 317 1.7 4.3 0.00 0.00 0.00 29 1014.8
20260506192603 76 325 2.6 7.0 0.00 0.00 0.00 30 1014.8
20260506192104 77 326 1.7 7.8 0.00 0.00 0.00 29 1014.7
20260506191604 77 329 0.0 2.6 0.00 0.00 0.00 29 1014.8
20260506191104 76 328 0.9 5.2 0.00 0.00 0.00 30 1014.8
20260506190604 77 311 0.0 4.3 0.00 0.00 0.00 31 1014.8
20260506185604 77 328 0.0 0.9 0.00 0.00 0.00 30 1014.9
20260506185104 76 346 0.0 2.6 0.00 0.00 0.00 31 1015.0
20260506184104 76 293 0.0 1.7 0.00 0.00 0.00 31 1015.2
20260506183604 75 14 0.0 0.0 0.00 0.00 0.00 33 1015.1
20260506183104 74 323 0.0 2.6 0.00 0.00 0.00 33 1015.2
20260506180604 73 258 0.0 2.6 0.00 0.00 0.00 34 1015.2
20260506175604 72 357 0.0 1.7 0.00 0.00 0.00 36 1015.4
20260506175104 72 81 0.9 2.6 0.00 0.00 0.00 36 1015.3
20260506174603 72 180 0.0 1.7 0.00 0.00 0.00 36 1015.3
20260506174104 72 233 0.0 6.1 0.00 0.00 0.00 37 1015.3
20260506173603 71 258 0.0 2.6 0.00 0.00 0.00 38 1015.3
20260506173104 71 325 0.0 0.0 0.00 0.00 0.00 38 1015.3
20260506172604 71 325 0.0 0.0 0.00 0.00 0.00 37 1015.3
20260506172104 70 326 1.7 4.3 0.00 0.00 0.00 38 1015.3
20260506171604 70 316 0.0 4.3 0.00 0.00 0.00 39 1015.4
20260506171103 70 255 0.0 0.9 0.00 0.00 0.00 39 1015.4
20260506170604 69 192 0.0 0.0 0.00 0.00 0.00 40 1015.4
20260506170104 69 197 0.0 0.0 0.00 0.00 0.00 42 1015.3
20260506165604 68 199 0.0 1.7 0.00 0.00 0.00 42 1015.4
20260506165104 68 161 0.0 0.0 0.00 0.00 0.00 42 1015.5
20260506164604 68 196 0.0 1.7 0.00 0.00 0.00 43 1015.6
20260506164104 67 139 0.0 1.7 0.00 0.00 0.00 45 1015.7
20260506163604 67 138 0.0 0.9 0.00 0.00 0.00 46 1015.7
20260506163104 66 220 0.0 1.7 0.00 0.00 0.00 47 1015.8
20260506162604 65 217 0.0 1.7 0.00 0.00 0.00 47 1015.8
20260506162104 65 237 0.9 7.0 0.00 0.00 0.00 47 1015.7
20260506161604 64 213 0.9 4.3 0.00 0.00 0.00 48 1015.6
20260506161104 64 180 0.0 0.9 0.00 0.00 0.00 50 1015.7
20260506160603 63 200 0.0 0.9 0.00 0.00 0.00 51 1015.7
20260506160104 63 181 0.0 0.9 0.00 0.00 0.00 51 1015.7
20260506155604 62 205 0.0 0.0 0.00 0.00 0.00 52 1015.6
20260506155103 62 206 0.0 7.8 0.00 0.00 0.00 54 1015.7
20260506154103 60 209 0.0 0.0 0.00 0.00 0.00 57 1015.7
20260506153604 59 212 0.0 4.3 0.00 0.00 0.00 57 1015.7
20260506153104 59 178 0.0 2.6 0.00 0.00 0.00 59 1015.7
20260506152604 58 205 0.9 5.2 0.00 0.00 0.00 60 1015.7
20260506152104 58 245 0.9 2.6 0.00 0.00 0.00 62 1015.7
20260506151604 57 161 0.0 1.7 0.00 0.00 0.00 62 1015.7
20260506151104 57 182 0.0 2.6 0.00 0.00 0.00 63 1015.7
20260506150604 56 165 0.0 0.0 0.00 0.00 0.00 65 1015.7
20260506150104 56 166 0.0 1.7 0.00 0.00 0.00 66 1015.6
20260506145604 55 238 0.9 4.3 0.00 0.00 0.00 67 1015.7
20260506145104 54 180 0.0 2.6 0.00 0.00 0.00 68 1015.6
20260506144604 54 202 0.9 2.6 0.00 0.00 0.00 69 1015.5
20260506144104 53 210 0.0 2.6 0.00 0.00 0.00 70 1015.4
20260506143104 52 230 0.9 6.1 0.00 0.00 0.00 72 1015.4
20260506142104 51 225 0.0 4.3 0.00 0.00 0.00 73 1015.3
20260506141604 51 227 0.9 5.2 0.00 0.00 0.00 74 1015.2
20260506141103 51 221 0.0 1.7 0.00 0.00 0.00 74 1015.0
20260506140604 51 224 0.0 0.0 0.00 0.00 0.00 75 1014.9
20260506140104 51 204 0.0 1.7 0.00 0.00 0.00 75 1014.9
20260506135604 51 206 0.0 1.7 0.00 0.00 0.00 76 1014.8
20260506135103 51 169 0.0 1.7 0.00 0.00 0.00 76 1014.9
20260506134103 51 178 0.0 2.6 0.00 0.00 0.00 76 1014.7
20260506133604 51 177 0.0 2.6 0.00 0.00 0.00 76 1014.6
20260506133104 51 233 0.0 1.7 0.00 0.00 0.00 76 1014.6
20260506132603 51 212 0.0 1.7 0.00 0.00 0.00 76 1014.4
20260506132104 51 223 0.0 1.7 0.00 0.00 0.00 76 1014.4
20260506130603 51 196 0.0 4.3 0.00 0.00 0.00 77 1014.4
20260506130104 51 188 0.0 2.6 0.00 0.00 0.00 77 1014.3
20260506125604 51 210 0.0 4.3 0.00 0.00 0.00 76 1014.3
20260506125104 51 216 0.0 1.7 0.00 0.00 0.00 76 1014.3
20260506124604 51 176 0.0 0.9 0.00 0.00 0.00 76 1014.4
20260506124103 51 188 0.0 1.7 0.00 0.00 0.00 76 1014.4
20260506123604 51 211 0.0 1.7 0.00 0.00 0.00 76 1014.4
20260506123104 51 170 0.0 1.7 0.00 0.00 0.00 75 1014.4